Location: Tucson
(32.2217°N, 110.9265°W)
Time: 01:59:23
(UTC-07:00)

S-56A Canister/Altair - All Passes

Search period start: 21 October 2021 00:00
Search period end: 31 October 2021 00:00
Orbit: 632 x 2501 km, 38.9° (Epoch: 20 October)

Date Brightness Start Highest point End Pass type
(mag) Time Alt. Az. Time Alt. Az. Time Alt. Az.
21 Oct - 11:33:04 10° SSW 11:40:45 38° SE 11:51:40 10° ENE daylight
21 Oct - 13:35:25 10° WSW 13:45:32 88° NNW 14:00:00 10° ENE daylight
21 Oct - 15:40:38 10° W 15:53:00 66° N 16:08:13 10° E daylight
21 Oct - 17:46:52 10° WNW 18:01:20 78° NNE 18:16:07 10° ESE visible
21 Oct - 19:53:36 10° WNW 20:08:24 62° SW 20:21:19 10° SE visible
21 Oct - 22:03:20 10° W 22:12:59 21° SW 22:21:23 10° S visible
22 Oct - 11:01:05 10° SSW 11:08:00 32° SE 11:17:37 10° ENE daylight
22 Oct - 13:02:48 10° WSW 13:12:14 86° SSE 13:26:10 10° ENE daylight
22 Oct - 15:07:38 10° W 15:19:19 67° N 15:34:25 10° ENE daylight
22 Oct - 17:13:37 10° WNW 17:27:34 75° NNE 17:42:38 10° ESE daylight
22 Oct - 19:20:02 10° WNW 19:34:53 68° SW 19:48:28 10° SE visible
22 Oct - 21:28:53 10° W 21:39:56 26° SW 21:49:32 10° S visible
23 Oct - 10:29:16 10° S 10:35:21 25° SE 10:43:30 10° E daylight
23 Oct - 12:30:17 10° SW 12:39:04 80° SSE 12:52:19 10° ENE daylight
23 Oct - 14:34:44 10° W 14:45:42 67° N 15:00:33 10° ENE daylight
23 Oct - 16:40:28 10° WNW 16:53:48 72° NNE 17:09:04 10° E daylight
23 Oct - 18:46:36 10° WNW 19:01:19 73° SSW 19:15:28 10° SE visible
23 Oct - 20:54:42 10° WNW 21:06:47 30° SW 21:17:26 10° S visible
24 Oct - 09:57:41 10° S 10:02:45 20° SE 10:09:14 10° E daylight
24 Oct - 11:57:51 10° SW 12:06:00 72° SSE 12:18:29 10° ENE daylight
24 Oct - 14:01:54 10° W 14:12:12 68° N 14:26:39 10° ENE daylight
24 Oct - 16:07:24 10° WNW 16:20:05 70° NNE 16:35:22 10° E daylight
24 Oct - 18:13:16 10° WNW 18:27:42 79° SSW 18:42:19 10° SE visible
24 Oct - 20:20:44 10° WNW 20:33:32 35° SW 20:45:08 10° SSE visible
25 Oct - 09:26:30 10° SSE 09:30:14 15° SE 09:34:41 10° E daylight
25 Oct - 11:25:31 10° SW 11:33:04 64° SE 11:44:40 10° ENE daylight
25 Oct - 13:29:10 10° W 13:38:46 70° NNW 13:52:45 10° ENE daylight
25 Oct - 15:34:24 10° WNW 15:46:23 68° N 16:01:34 10° E daylight
25 Oct - 17:40:01 10° WNW 17:54:03 84° SSW 18:09:04 10° ESE visible
25 Oct - 19:46:56 10° WNW 20:00:12 40° SW 20:12:38 10° SSE visible
26 Oct - 08:56:57 10° SE 08:57:45 10° ESE 08:58:35 10° ESE daylight
26 Oct - 10:53:16 10° SW 11:00:15 56° SE 11:10:53 10° ENE daylight
26 Oct - 12:56:31 10° W 13:05:28 72° NNW 13:18:51 10° ENE daylight
26 Oct - 15:01:30 10° WNW 15:12:46 66° N 15:27:41 10° E daylight
26 Oct - 17:06:52 10° WNW 17:20:24 89° SSW 17:35:40 10° ESE daylight
26 Oct - 19:13:19 10° WNW 19:26:49 45° SW 19:39:58 10° SSE visible
26 Oct - 21:26:57 10° WSW 21:31:23 12° SW 21:35:41 10° SW visible
27 Oct - 10:21:07 10° SSW 10:27:31 47° SE 10:37:06 10° ENE daylight
27 Oct - 12:23:55 10° WSW 12:32:14 75° NNW 12:44:58 10° ENE daylight
27 Oct - 14:28:39 10° WNW 14:39:13 64° N 14:53:45 10° E daylight
27 Oct - 16:33:49 10° WNW 16:46:45 87° NNE 17:02:08 10° ESE daylight
27 Oct - 18:39:50 10° WNW 18:53:22 50° SW 19:07:08 10° SSE visible
27 Oct - 20:51:00 10° W 20:58:16 15° SW 21:05:16 10° SSW visible
28 Oct - 09:49:02 10° SSW 09:54:53 39° SE 10:03:22 10° ENE daylight
28 Oct - 11:51:25 10° WSW 11:59:08 79° NNW 12:11:09 10° ENE daylight
28 Oct - 13:55:54 10° WNW 14:05:44 63° N 14:19:47 10° E daylight
28 Oct - 16:00:51 10° WNW 16:13:08 83° NNE 16:28:29 10° ESE daylight
28 Oct - 18:06:29 10° WNW 18:19:53 55° SW 18:34:10 10° SE visible
28 Oct - 20:16:08 10° W 20:25:06 19° SW 20:33:49 10° SSW visible
29 Oct - 09:17:05 10° SSW 09:22:19 31° SE 09:29:37 10° ENE daylight
29 Oct - 11:18:58 10° WSW 11:26:07 84° NNW 11:37:22 10° ENE daylight
29 Oct - 13:23:12 10° W 13:32:22 62° N 13:45:48 10° E daylight
29 Oct - 15:27:59 10° WNW 15:39:34 78° NNE 15:54:45 10° ESE daylight
29 Oct - 17:33:15 10° WNW 17:46:22 60° SW 18:01:03 10° SE visible
29 Oct - 19:41:46 10° W 19:51:52 22° SW 20:01:55 10° S visible
30 Oct - 08:45:17 10° S 08:49:51 24° SE 08:55:52 10° E daylight
30 Oct - 10:46:34 10° WSW 10:53:13 89° SSE 11:03:40 10° ENE daylight
30 Oct - 12:50:34 10° W 12:59:04 61° N 13:11:49 10° ENE daylight
30 Oct - 14:55:11 10° WNW 15:06:03 75° NNE 15:20:54 10° ESE daylight
30 Oct - 17:00:09 10° WNW 17:12:51 65° SW 17:27:48 10° SE daylight
30 Oct - 19:07:45 10° W 19:18:34 26° SW 19:29:41 10° S visible
